Location: Unspecified
(43.8044°N, 11.0278°E)
Time: 19:27:37
(UTC+02:00)

Cosmos 1674 - Visible Passes

Search period start: 31 July 2015 00:00
Search period end: 10 August 2015 00:00
Orbit: 505 x 531 km, 82.5° (Epoch: 30 July)

Date Brightness Start Highest point End Pass type
(mag) Time Alt. Az. Time Alt. Az. Time Alt. Az.
31 Jul 5.9 03:26:04 10° NE 03:27:12 11° ENE 03:28:32 10° E visible
31 Jul 2.8 04:59:37 10° NNW 05:03:27 57° W 05:07:16 10° S visible
01 Aug 2.7 04:45:25 10° NNW 04:49:18 70° W 04:53:10 10° S visible
02 Aug 2.6 04:31:13 10° N 04:35:08 83° W 04:39:02 10° S visible
03 Aug 2.7 04:17:03 10° N 04:20:58 82° E 04:24:13 14° S visible
04 Aug 3.0 04:02:53 10° N 04:06:47 68° E 04:09:23 20° SSE visible
05 Aug 3.3 03:48:44 10° N 03:52:35 57° E 03:54:36 26° SSE visible
05 Aug 4.9 05:26:55 10° WNW 05:27:55 11° W 05:28:42 10° W visible
06 Aug 3.6 03:34:35 10° N 03:38:23 47° ENE 03:39:54 30° SE visible
06 Aug 4.7 05:11:58 10° WNW 05:13:48 13° W 05:14:55 11° WSW visible
07 Aug 3.9 03:20:28 10° N 03:24:10 40° ENE 03:25:14 32° ESE visible
07 Aug 4.5 04:57:20 10° NW 04:59:40 15° W 05:00:16 14° W visible
08 Aug 4.1 03:06:22 10° N 03:09:57 33° ENE 03:10:37 31° E visible
08 Aug 4.4 04:42:49 10° NW 04:45:30 17° W 04:45:39 17° W visible
09 Aug 4.4 02:52:17 10° NNE 02:55:42 29° ENE 02:56:03 28° E visible
09 Aug 4.3 04:28:23 10° NW 04:31:05 20° W 04:31:05 20° W visible
